GFSFLT2_2pvu_pres_045.txt.gz
Presure
384 349 315 312 344 314 294 278 265 246 240 228 231 216 206 224 218 221 200 215 210 211 212 216 214 212 223
282 332 312 295 301 306 331 287 291 275 267 257 224 230 215 218 194 186 230 205 231 209 221 208 214 212 154
258 339 318 308 319 300 286 297 273 267 261 256 262 211 198 219 238 218 205 201 209 192 200 218 216 214 201
238 247 264 293 308 291 287 281 285 286 279 263 258 254 256 256 238 240 221 234 229 225 220 221 218 222 219
236 234 237 244 233 259 288 283 284 276 282 268 273 260 257 247 231 236 228 241 228 236 235 229 230 231 231
226 227 228 228 229 228 232 232 231 243 255 264 293 282 278 262 252 244 242 250 243 244 241 241 241 242 239
223 225 218 221 227 222 219 218 224 220 220 221 224 227 249 275 293 293 302 272 256 243 237 255 250 242 248
250 253 223 212 221 218 217 197 228 228 229 229 223 211 215 222 221 226 228 229 241 242 252 249 268 251 247
260 257 208 212 211 222 231 236 249 255 256 259 259 258 244 243 244 246 246 244 243 245 242 241 186 223 242
264 260 215 226 232 234 228 259 268 272 271 262 265 271 287 309 315 316 313 315 318 275 159 168 273 240 167
241 220 232 232 233 248 252 267 267 269 280 294 312 320 289 281 314 355 354 357 362 324 317 317 287 287 283
231 229 229 229 234 262 268 271 281 290 291 328 289 281 345 322 332 345 354 404 371 359 357 353 352 346 343
226 228 228 233 249 263 269 282 281 291 327 285 361 329 316 331 331 384 414 400 390 380 366 352 351 354 354
229 233 237 242 264 272 282 281 287 328 277 370 329 305 318 329 335 431 404 393 384 386 383 365 354 357 369
235 240 243 259 280 282 278 286 320 273 306 369 298 316 316 331 331 412 416 391 384 380 378 367 355 364 373
243 247 260 278 277 278 287 319 267 291 361 310 299 315 316 335 315 369 411 405 387 378 240 363 355 351 357
254 267 280 284 279 290 315 265 285 309 353 292 304 319 321 333 318 329 367 384 402 383 377 368 346 343 354

GFSFLT2_2pvu_pres_048.txt.gz
Presure
227 228 237 236 233 240 276 359 313 323 299 265 266 266 238 233 249 250 199 228 226 206 221 220 188 209 213
241 231 245 225 233 228 236 254 300 303 285 272 257 277 269 241 229 238 216 211 218 226 217 214 209 219 232
227 229 240 231 231 235 231 231 232 265 287 274 270 275 270 256 244 244 242 227 225 219 222 217 216 217 224
233 240 242 263 261 268 266 231 232 228 227 235 290 289 282 272 264 268 260 260 259 251 225 215 216 206 237
229 242 254 257 256 271 270 217 218 230 229 224 224 226 237 253 282 270 259 259 254 247 254 228 228 230 235
241 243 252 256 203 232 268 248 232 225 220 235 234 242 232 231 228 218 215 286 279 277 270 271 257 258 265
213 246 247 220 258 272 249 213 210 230 232 252 236 230 230 253 251 240 234 231 225 220 218 222 263 273 252
226 245 251 256 218 240 229 236 235 229 230 230 241 261 265 264 261 257 255 259 256 244 237 234 235 234 235
251 257 268 275 239 232 235 228 233 228 236 235 266 268 269 272 273 274 271 271 269 262 263 265 261 257 258
266 271 251 232 230 231 233 154 236 242 244 247 279 279 280 287 288 287 332 332 324 320 318 318 318 303 287
232 226 230 237 239 245 242 246 246 250 259 277 283 284 284 306 332 312 299 291 313 305 337 337 343 347 317
236 239 237 235 234 235 237 257 265 273 280 286 278 283 324 301 274 315 369 327 308 328 333 341 342 346 392
226 231 229 238 245 251 257 267 274 285 291 291 305 320 293 264 315 351 301 305 324 328 342 331 417 427 408
230 238 245 242 247 258 268 274 284 289 291 310 326 285 263 301 348 287 299 307 332 334 349 336 397 427 409
236 242 244 250 258 266 276 281 279 293 313 298 266 278 303 338 285 296 304 321 336 336 335 393 382 418 401
241 249 251 260 268 279 281 285 296 308 295 265 284 309 329 294 301 310 323 332 331 345 324 400 353 380 408
250 253 259 268 281 283 297 301 332 276 273 296 320 321 306 312 326 339 341 350 331 342 316 354 362 358 367

GFSFLT2_2pvu_pres_051.txt.gz
Presure
277 279 256 248 239 233 242 260 274 291 244 238 255 314 276 264 257 255 267 240 226 246 230 220 212 210 212
285 265 243 244 237 224 249 255 269 283 272 227 225 249 239 265 274 276 257 256 241 215 241 237 228 228 215
255 219 242 232 245 245 214 258 263 231 217 253 234 256 250 222 245 274 288 270 254 268 229 253 238 208 213
243 247 239 240 243 243 246 250 262 250 250 240 223 219 230 232 235 247 234 261 291 269 256 242 244 238 242
233 241 245 245 244 248 250 257 265 279 248 238 234 239 237 235 240 244 234 239 238 229 268 264 259 250 250
250 248 247 243 250 250 253 269 277 259 242 232 233 229 229 232 231 230 234 232 253 255 237 286 246 258 257
249 248 257 256 253 265 274 270 243 229 231 235 235 239 245 184 238 241 244 243 263 262 261 257 252 243 239
269 260 266 275 284 250 229 228 241 241 240 241 240 239 243 257 260 258 269 280 287 273 269 271 269 263 256
239 239 239 233 234 237 233 231 231 228 236 244 249 255 267 273 278 282 280 283 284 282 285 291 292 281 273
245 240 231 227 226 228 230 230 240 249 249 248 262 271 280 282 284 288 289 291 294 301 310 335 332 328 334
221 229 230 226 220 224 232 238 245 253 254 263 275 280 278 287 290 295 312 322 339 329 302 277 270 308 307
219 221 222 222 220 220 232 242 254 257 265 275 278 282 284 290 292 311 310 295 272 270 294 358 359 319 293
219 218 225 220 220 230 241 252 258 267 277 281 284 292 300 303 315 293 274 282 293 323 372 293 288 303 307
220 220 224 218 229 240 252 257 270 280 286 293 300 309 328 334 268 278 294 312 321 346 304 314 320 323 331
220 224 220 228 239 251 260 274 281 292 301 318 341 346 284 278 283 303 324 326 342 329 330 336 338 347 332
221 221 228 237 247 263 277 288 297 306 330 321 331 284 295 295 329 343 360 369 367 354 354 349 352 339 344
224 228 238 245 264 276 300 313 330 313 315 329 318 290 330 349 381 417 411 400 385 374 373 365 316 336 350

GFSFLT2_2pvu_pres_054.txt.gz
Presure
290 276 256 270 265 266 245 230 245 243 244 252 253 285 252 231 246 234 239 274 254 263 243 240 237 245 231
301 291 274 267 273 244 234 245 248 244 248 213 276 230 254 245 243 237 289 234 278 259 254 248 234 238 235
285 274 271 252 258 255 245 251 248 251 257 265 255 281 255 241 236 243 239 244 275 233 250 269 264 245 230
283 267 262 251 249 250 244 246 251 260 231 259 279 256 231 231 229 229 229 227 229 233 233 227 264 256 246
260 278 270 261 257 259 257 260 266 285 271 237 229 237 243 243 241 241 241 243 243 243 237 226 238 238 286
241 236 244 277 276 278 280 289 249 242 238 236 233 235 232 232 238 238 241 244 246 245 247 244 241 238 230
240 259 254 242 241 244 243 241 231 232 231 228 225 227 235 242 251 253 251 254 260 263 262 258 257 252 250
229 235 236 229 234 230 217 228 224 225 225 223 218 224 239 250 256 259 265 282 287 287 292 296 289 280 275
223 219 218 220 221 219 220 218 220 223 223 218 224 236 251 256 259 270 279 281 283 286 285 289 290 289 294
221 219 211 219 219 221 214 214 220 224 218 221 233 246 255 259 272 279 284 291 291 297 300 301 297 307 319
225 217 218 221 221 223 219 216 221 223 222 230 240 252 261 281 287 292 296 303 309 324 323 326 336 304 292
222 224 224 220 223 219 215 215 222 221 227 238 249 265 286 294 297 303 312 327 355 342 310 284 278 281 289
228 222 221 220 221 228 222 215 225 225 236 246 269 290 303 303 311 328 350 316 290 300 299 290 290 299 312
237 242 250 244 233 245 223 227 226 235 248 272 304 316 329 370 353 339 323 320 305 313 324 334 341 339 335
244 244 253 235 241 235 227 226 236 250 273 331 331 314 326 350 344 283 300 320 344 374 401 411 404 393 379
243 248 254 234 232 227 228 237 250 273 336 282 278 303 290 322 285 310 345 314 289 336 326 428 410 402 388
236 219 240 230 231 229 240 253 274 331 331 385 291 360 332 281 307 361 279 277 287 282 268 289 291 286 410

GFSFLT2_2pvu_pres_060.txt.gz
Presure
242 223 224 251 260 244 251 257 278 258 251 258 243 239 231 256 279 234 246 243 236 241 254 253 241 319 294
205 205 249 237 255 252 257 278 267 251 246 238 233 259 232 254 242 238 238 229 232 231 231 236 253 232 295
281 238 252 232 248 251 247 273 262 250 237 235 231 223 237 239 215 228 224 224 227 231 225 220 231 250 235
262 255 244 250 242 247 242 267 262 249 239 233 230 227 224 223 226 224 218 222 224 223 224 222 229 243 254
259 251 240 248 231 242 250 256 261 253 243 239 232 228 224 219 222 224 224 219 215 219 220 219 225 231 244
242 247 244 234 235 229 240 250 248 254 250 242 238 233 229 223 222 222 224 223 221 215 217 224 223 229 237
249 235 231 229 246 242 244 246 243 248 249 246 247 245 243 235 226 224 224 230 233 240 225 228 227 231 239
238 228 230 242 229 239 239 241 244 239 248 238 245 245 242 240 239 243 254 250 240 245 229 230 231 239 253
231 232 241 229 227 228 238 239 248 228 248 251 240 244 258 253 249 265 268 251 243 228 230 233 241 255 272
252 238 232 227 244 233 242 237 245 237 262 248 245 265 245 252 237 244 242 236 229 231 238 242 273 324 329
239 235 235 237 231 231 237 238 248 251 253 242 268 244 254 258 242 236 257 238 231 241 250 333 340 328 258
236 236 233 230 226 240 240 238 245 256 247 264 242 257 278 251 248 241 235 238 242 273 335 321 274 325 301
240 229 230 232 243 246 233 249 258 247 258 240 268 275 241 237 230 234 267 271 304 327 282 379 301 284 361
218 227 241 243 230 240 254 253 252 257 271 256 248 236 238 251 276 273 274 324 372 269 400 282 350 348 294
237 244 229 238 253 258 245 264 260 243 254 283 278 278 275 270 268 297 330 339 276 372 299 349 299 291 348
239 240 248 259 242 259 261 241 227 230 281 276 273 265 260 292 321 323 361 291 369 374 357 305 305 375 281
254 263 242 252 251 242 224 240 225 235 271 262 250 263 297 309 291 268 360 379 373 370 300 345 376 344 285

GFSFLT2_2pvu_pres_066.txt.gz
Presure
204 201 153 213 231 135 251 236 265 245 257 242 261 253 242 249 236 243 259 261 254 243 234 232 224 224 235
209 226 270 274 242 274 242 255 251 243 243 243 254 241 255 243 237 242 231 256 256 255 246 239 236 226 220
249 265 240 262 264 207 257 248 242 256 282 234 254 238 246 233 238 233 244 249 253 253 252 251 245 237 228
262 250 263 238 247 252 246 252 243 242 258 260 243 246 230 230 229 233 233 241 243 256 252 252 249 248 245
254 246 244 250 262 252 252 232 289 274 266 235 242 233 236 244 239 231 239 230 253 249 269 260 250 243 256
248 247 245 257 262 253 222 254 275 260 248 248 244 222 238 238 241 237 238 243 247 252 265 254 244 270 261
249 250 262 282 253 283 289 271 266 250 244 239 232 240 236 230 247 231 235 252 240 262 264 245 271 263 254
244 310 305 309 294 287 269 261 250 239 238 233 235 244 236 242 239 226 250 235 262 263 249 266 264 252 247
311 305 301 292 276 265 253 253 244 233 235 230 237 229 246 240 229 236 246 253 261 249 286 251 271 262 262
306 297 289 266 251 242 253 245 243 234 233 245 232 232 234 227 237 251 251 262 256 272 240 232 258 284 283
289 258 261 253 258 237 243 240 232 237 238 234 225 239 229 245 240 267 257 266 253 236 230 228 237 255 257
247 262 243 256 242 243 238 237 244 232 230 243 242 230 244 236 265 249 262 249 230 231 230 229 243 257 258
255 259 238 250 248 244 251 236 235 229 232 236 232 245 235 261 248 256 248 235 224 229 229 235 254 273 275
255 243 251 237 243 231 237 228 236 246 235 239 239 236 255 245 257 254 245 227 231 228 232 260 273 275 319
250 250 248 244 240 238 237 243 235 240 240 236 242 254 251 259 245 241 242 237 232 251 272 273 277 307 318
240 242 239 242 245 244 245 243 240 242 252 250 249 250 240 241 239 237 239 264 275 274 276 276 298 315 312
240 244 249 246 238 240 247 254 250 250 249 241 235 233 232 253 256 265 270 270 277 277 273 296 307 293 346

GFSFLT2_2pvu_pres_072.txt.gz
Presure
179 187 179 180 215 223 233 225 224 234 231 244 246 252 248 250 243 234 239 271 266 254 244 237 240 242 242
180 176 214 229 233 230 226 232 237 244 244 257 246 263 253 247 239 233 229 242 253 248 240 240 233 244 236
218 243 244 233 244 229 240 251 247 247 258 260 265 253 249 243 237 235 236 222 262 241 246 237 228 244 239
246 242 243 243 244 251 255 252 259 255 257 263 253 248 246 242 246 265 270 265 253 234 240 236 229 239 236
253 249 247 258 260 272 277 274 272 258 243 259 254 254 259 247 267 277 268 257 245 246 235 223 229 241 233
267 267 292 298 341 301 270 252 297 221 273 274 267 260 293 293 292 271 263 252 238 228 229 221 243 239 238
285 314 262 304 318 297 307 302 298 303 304 293 295 308 300 288 273 262 253 252 246 239 235 223 239 231 236
268 301 283 266 277 298 305 306 296 298 312 290 267 276 279 267 265 254 242 220 239 237 223 239 227 237 242
328 339 342 326 249 273 263 273 274 263 301 284 273 278 271 254 250 230 248 238 230 229 232 232 233 232 247
352 338 335 307 323 322 286 276 285 268 283 267 272 276 258 257 251 248 224 226 224 225 237 229 237 238 240
320 314 309 306 283 279 280 285 272 273 271 275 266 264 248 248 246 235 232 237 236 238 230 241 234 241 243
295 292 294 294 290 289 280 269 274 268 240 237 236 247 264 236 227 228 236 232 238 229 235 243 243 240 249
274 280 275 275 259 266 253 239 246 252 241 242 238 240 247 243 241 242 243 236 239 241 241 238 246 253 254
258 262 261 259 244 252 246 250 242 247 244 244 246 248 243 241 238 242 241 238 235 240 249 252 247 241 244
259 270 266 259 260 252 254 259 256 255 248 244 242 241 240 237 234 239 243 247 246 238 237 252 256 254 267
253 245 247 250 251 247 241 245 247 245 243 239 235 236 240 242 244 241 237 242 253 263 264 265 251 271 269
255 256 257 253 249 245 240 240 234 234 240 243 239 239 236 234 242 246 241 260 257 270 273 278 277 277 279

GFSFLT2_2pvu_pres_075.txt.gz
Presure
182 188 190 185 178 195 144 226 240 237 236 242 230 235 246 249 251 248 258 252 249 241 239 237 261 251 243
195 188 193 202 201 212 242 239 244 248 246 242 247 249 267 267 254 262 254 233 247 241 236 260 268 249 240
211 197 192 214 251 262 256 245 252 250 256 253 248 269 253 261 272 263 240 255 242 256 266 267 260 252 242
201 217 254 253 270 265 262 262 261 263 293 296 280 275 273 269 261 243 260 257 255 260 274 264 258 251 243
250 280 269 293 291 289 282 306 258 261 251 298 298 294 284 291 274 285 250 296 272 279 270 266 252 247 242
275 295 289 285 303 264 294 292 288 239 256 264 314 297 294 283 292 279 295 282 294 280 267 257 248 234 232
289 269 271 326 298 255 306 286 304 284 276 264 275 300 296 291 289 289 303 295 273 264 262 245 255 244 242
287 291 287 319 313 321 336 344 318 306 291 277 264 301 292 279 268 297 280 265 263 260 248 235 228 235 234
311 310 314 314 333 338 322 317 306 294 287 278 272 277 264 268 280 263 253 267 253 250 228 234 245 239 226
302 317 333 327 325 323 316 308 290 279 275 279 265 281 266 272 263 253 274 245 231 229 248 226 225 232 245
301 313 321 310 300 298 295 282 292 301 289 287 286 275 269 261 270 265 258 248 246 238 235 229 230 230 233
333 304 295 290 295 295 296 294 297 270 269 249 255 253 258 244 236 235 237 254 256 235 228 227 230 242 239
267 271 282 268 277 271 262 261 257 252 252 249 241 253 250 232 241 239 237 239 242 241 247 244 240 244 243
270 279 276 271 254 256 259 245 249 251 246 243 249 247 248 242 244 247 246 244 239 239 238 238 240 244 249
267 264 251 268 261 255 266 259 257 249 249 256 260 254 247 240 242 242 238 236 236 240 242 239 235 240 246
260 259 250 264 263 253 252 252 254 252 242 242 247 246 238 236 241 244 241 237 230 227 239 241 246 255 260
264 267 262 251 252 255 253 251 249 246 244 238 237 242 247 241 240 238 228 230 240 239 243 251 252 305 342

GFSFLT2_2pvu_pres_078.txt.gz
Presure
204 192 186 162 188 211 198 196 208 216 237 237 272 266 271 269 257 254 251 245 265 264 254 261 246 245 234
187 198 184 182 217 180 228 228 240 236 239 282 266 286 281 287 272 274 293 251 252 243 254 265 238 255 239
199 194 186 187 213 210 230 265 258 262 302 287 272 281 262 281 270 246 243 264 261 249 262 258 245 248 249
195 203 216 217 230 287 241 323 303 287 281 233 283 292 289 281 287 233 248 278 267 268 262 254 255 250 255
216 214 217 237 307 297 307 293 273 254 266 295 289 283 284 262 296 283 285 283 285 279 267 278 252 273 269
222 204 236 350 309 293 270 249 330 303 307 335 273 296 304 290 264 262 287 262 278 283 271 273 277 283 258
220 271 289 291 246 259 322 324 321 324 320 331 333 314 283 283 275 280 295 292 293 291 281 287 284 270 261
284 288 263 285 297 273 310 316 324 312 337 329 307 293 284 293 282 270 288 291 285 285 285 279 262 256 245
271 292 312 305 300 311 325 339 361 326 318 301 296 284 287 302 274 289 292 260 260 278 268 259 255 255 250
299 307 300 297 307 305 325 329 318 327 303 285 288 287 287 274 263 262 273 256 265 251 237 261 233 231 232
298 299 297 293 291 312 307 308 305 297 300 290 290 287 277 279 264 260 274 249 248 246 251 251 232 229 228
291 294 283 276 270 267 275 296 293 291 290 293 274 262 261 265 261 259 240 263 260 255 247 235 238 238 237
285 281 276 265 277 268 283 280 270 265 256 259 263 249 250 247 244 245 249 249 234 228 237 239 234 234 239
276 291 277 284 267 270 279 276 267 253 258 258 247 249 252 252 242 248 248 248 242 235 242 242 242 242 241
282 279 274 266 272 262 277 263 262 256 252 258 254 251 241 248 253 251 248 244 242 242 239 237 238 240 242
285 268 263 265 264 255 254 261 266 259 252 251 252 251 245 243 243 246 240 229 233 240 240 240 238 230 231
278 262 253 259 256 257 260 256 246 250 251 252 247 241 241 238 236 241 248 242 238 238 238 230 229 231 242

GFSFLT2_2pvu_pres_081.txt.gz
Presure
199 193 197 176 189 196 207 177 197 204 204 214 205 228 222 233 324 260 237 269 268 265 252 257 277 264 241
200 165 214 196 192 187 198 196 205 210 218 231 232 248 312 319 242 249 283 234 277 279 245 244 262 239 262
166 202 199 173 193 176 219 201 210 214 198 254 229 314 272 273 315 264 312 274 268 242 270 263 229 241 248
196 199 200 215 204 202 204 206 206 212 206 239 242 289 318 317 295 305 284 282 267 270 245 257 241 249 249
186 197 187 217 209 175 185 227 175 164 251 321 314 319 331 321 343 310 306 282 263 260 261 267 254 242 254
215 194 217 218 196 233 231 205 194 242 326 315 320 309 315 324 314 324 298 285 307 276 254 263 279 280 266
191 188 197 201 236 220 233 219 228 325 318 310 326 324 325 316 317 317 292 284 276 302 261 264 263 266 267
215 197 203 229 221 232 294 244 298 319 321 339 340 333 345 319 317 303 294 280 274 270 269 268 282 288 283
205 229 215 245 217 233 272 243 309 316 332 338 359 313 324 304 294 293 291 283 273 271 268 278 281 278 272
219 235 199 240 324 294 308 307 308 317 323 315 324 320 305 298 302 297 287 288 267 293 276 271 252 261 260
191 224 303 289 318 308 300 298 288 285 306 268 311 292 291 279 270 264 277 267 256 261 260 261 255 247 239
289 293 300 317 284 278 297 290 278 281 285 291 290 282 282 283 275 266 260 257 258 265 261 248 251 247 241
272 293 252 278 276 292 286 275 270 277 275 258 281 246 277 277 262 262 258 258 260 259 252 258 256 250 254
288 276 279 295 287 282 293 279 288 268 270 265 257 261 254 257 242 248 251 248 232 239 249 253 251 235 228
259 302 295 286 278 276 280 272 268 273 264 275 258 252 254 254 247 246 240 241 245 247 245 244 244 243 243
279 295 285 276 270 267 272 268 264 267 258 265 269 267 260 255 265 264 256 248 243 241 244 247 234 231 238
290 283 269 262 264 263 267 260 262 261 265 262 250 250 253 253 253 249 246 239 236 237 236 241 249 246 240

GFSFLT2_2pvu_pres_084.txt.gz
Presure
181 150 166 200 185 164 214 164 200 182 139 183 193 203 203 209 231 204 201 274 236 296 306 311 279 292 268
179 196 179 170 182 183 219 208 181 206 197 180 209 214 207 216 223 230 338 332 327 307 303 311 284 269 254
189 186 192 159 199 211 190 180 185 194 179 194 174 224 228 220 197 326 239 365 349 300 302 299 268 262 257
191 198 188 216 197 176 170 182 193 211 209 209 213 207 215 238 243 244 330 322 341 321 316 291 274 264 249
208 194 179 197 186 197 196 207 193 193 216 204 201 200 207 311 240 318 323 316 325 335 294 294 270 252 258
198 190 188 198 157 188 212 194 203 205 211 223 201 197 247 244 271 333 335 328 320 323 306 280 262 257 250
189 183 200 182 195 201 210 222 192 202 208 211 201 220 273 335 354 338 350 330 327 318 283 290 265 263 258
191 184 191 208 192 202 193 208 210 244 234 274 223 252 232 352 362 346 325 316 309 317 299 279 275 277 285
206 211 190 190 208 217 211 221 213 246 227 209 264 283 316 334 333 323 313 311 307 292 298 284 266 282 265
218 216 220 200 225 194 211 212 206 208 252 288 277 301 315 330 327 300 306 302 290 286 286 280 275 270 268
205 209 223 200 214 221 235 230 205 292 285 307 291 293 304 327 298 290 281 282 272 276 278 270 291 268 267
211 208 206 222 226 218 214 222 213 301 281 295 284 281 292 277 298 290 290 262 273 276 281 274 258 257 258
215 214 213 220 211 281 275 237 303 285 296 294 284 284 282 275 268 259 278 285 269 276 270 264 268 264 262
266 276 262 258 283 244 261 277 270 290 283 283 267 270 277 268 261 259 252 246 250 251 238 238 237 258 257
258 264 271 267 263 267 279 274 285 279 277 280 269 260 287 273 267 255 258 259 250 247 246 250 246 243 246
265 268 263 260 268 252 260 290 277 266 266 271 264 262 264 253 268 266 272 270 266 257 254 248 252 246 243
260 253 254 253 255 272 288 280 265 260 260 266 261 259 262 263 259 250 254 254 251 252 249 245 239 238 239

GFSFLT2_2pvu_pres_087.txt.gz
Presure
209 183 193 188 186 170 201 193 192 193 177 214 206 193 171 190 150 194 205 192 222 216 253 232 276 328 319
177 213 188 172 177 188 144 182 209 165 210 186 188 180 192 190 187 199 180 195 219 218 187 334 226 317 299
208 209 179 164 181 180 145 190 192 207 180 207 175 179 180 192 184 179 222 225 195 246 250 244 355 340 296
210 163 176 193 194 133 196 154 189 180 187 185 186 189 203 186 209 195 215 206 240 322 297 340 348 312 295
203 182 151 187 212 191 186 189 165 183 212 193 198 182 192 198 209 204 236 242 246 236 244 344 337 321 316
193 164 179 209 176 183 200 193 221 182 185 185 203 205 210 204 216 217 214 264 222 324 353 342 322 325 290
190 182 196 177 179 224 187 195 186 191 186 189 202 210 241 232 220 228 253 222 306 359 363 345 321 313 294
203 185 200 206 182 181 188 185 193 173 193 207 204 231 199 204 223 203 215 258 359 339 333 323 319 310 314
192 203 171 178 190 179 179 203 181 185 194 208 184 228 207 223 211 251 286 224 335 323 321 324 321 306 283
199 194 195 196 186 184 183 187 196 196 204 254 267 219 183 202 194 273 286 332 324 310 290 306 294 296 295
210 208 203 199 198 203 207 210 189 204 240 212 244 253 227 244 280 299 289 302 310 278 295 293 286 283 286
202 198 210 219 206 219 209 228 227 218 244 264 287 264 278 278 302 295 292 281 296 300 281 284 281 283 284
328 296 266 199 205 268 257 256 270 263 266 282 279 274 273 267 292 279 283 286 267 266 286 276 282 285 281
276 290 301 285 279 283 275 271 255 275 260 265 269 266 283 291 279 275 271 277 270 270 265 250 256 277 270
262 292 312 240 276 276 270 263 262 264 259 269 257 257 282 272 269 265 272 271 264 257 261 256 252 255 252
279 284 308 276 290 270 266 265 260 251 262 251 261 273 265 270 266 260 263 252 266 263 256 255 257 254 249
265 276 302 273 284 278 264 253 247 255 244 253 277 265 261 258 257 257 260 264 274 262 253 251 249 249 262

GFSFLT2_2pvu_pres_090.txt.gz
Presure
175 182 182 176 177 178 174 201 183 178 176 197 200 173 224 200 202 209 192 189 180 168 190 202 206 214 194
191 174 172 179 188 183 171 184 190 176 189 209 201 149 222 181 211 168 180 205 201 190 193 189 206 235 226
178 170 165 164 169 184 187 170 161 190 202 215 169 129 206 218 182 182 213 180 193 187 192 198 214 207 233
175 199 200 188 160 160 154 171 220 185 230 199 199 184 194 200 181 196 207 180 190 197 201 222 238 260 269
168 194 171 147 192 181 210 216 209 206 212 198 178 182 194 213 216 182 208 193 194 223 228 219 262 252 351
193 208 191 221 216 201 226 192 188 164 193 199 211 199 192 192 216 182 186 199 207 206 202 272 247 280 362
209 213 233 206 214 201 180 221 206 206 192 198 194 192 193 198 210 205 223 193 201 225 231 247 300 376 365
198 200 204 184 176 176 172 199 218 193 181 184 201 191 195 206 206 204 203 219 222 263 250 272 321 360 354
172 198 201 225 207 195 216 201 196 204 191 192 203 199 194 203 206 187 207 244 250 267 301 327 336 331 334
224 207 210 204 230 213 199 210 206 197 212 199 193 193 206 234 181 253 247 203 292 275 307 320 310 310 316
219 211 209 198 198 204 209 206 200 202 188 187 183 254 278 286 266 251 278 293 274 294 301 297 305 305 297
216 219 223 230 227 245 190 196 217 210 240 219 269 301 253 265 286 274 288 272 271 291 280 275 295 297 295
233 234 225 240 268 210 267 293 270 268 287 331 267 270 266 276 270 272 274 271 288 280 279 278 265 287 268
257 216 277 260 279 237 296 243 254 233 264 227 234 278 269 265 262 271 269 256 284 277 269 269 270 277 269
222 239 230 244 228 278 252 241 252 252 290 279 290 268 267 263 263 265 255 269 270 262 265 266 264 267 248
253 247 247 261 266 272 264 267 268 263 280 285 265 261 265 258 261 256 250 270 265 261 263 252 259 262 259
277 299 290 263 273 264 262 265 263 261 283 264 261 260 253 256 254 250 275 260 254 255 254 252 255 259 262

GFSFLT2_2pvu_pres_093.txt.gz
Presure
190 177 193 185 183 176 169 171 192 172 175 174 183 186 162 163 178 182 163 215 175 206 157 132 134 185 160
193 157 192 177 180 169 173 203 153 189 180 195 183 151 161 160 194 194 217 128 190 171 209 199 213 185 209
165 163 183 195 186 191 191 167 166 150 191 172 164 175 151 206 222 179 167 208 164 224 192 188 204 191 155
152 150 192 185 190 199 162 185 210 184 173 205 195 164 180 240 196 232 160 212 181 186 195 217 206 212 220
168 189 183 203 186 195 198 229 189 183 192 208 191 190 243 208 193 215 207 200 204 192 205 188 198 207 216
182 190 194 205 207 193 211 244 178 175 192 210 216 194 199 222 198 212 181 203 206 191 196 192 201 223 230
207 190 192 205 198 178 184 240 207 200 218 236 216 199 205 223 205 194 198 194 195 183 196 206 229 216 260
214 190 188 201 172 217 209 208 229 215 218 189 199 200 198 204 203 200 195 204 194 204 218 230 253 291 285
200 197 195 196 209 204 196 217 201 182 204 204 211 208 207 214 199 198 208 203 203 219 252 288 294 281 283
213 225 207 207 232 208 213 222 228 206 216 192 196 189 180 192 215 201 181 240 274 276 298 288 282 283 283
211 209 213 213 207 218 225 210 217 210 199 203 198 195 231 221 211 215 255 252 262 277 258 274 256 283 292
248 239 223 218 211 217 211 223 211 212 218 220 263 255 272 251 257 257 274 232 211 245 282 256 275 278 271
249 228 219 238 241 241 241 248 254 271 271 246 287 221 208 203 248 261 300 298 275 276 275 272 269 287 276
227 266 263 266 265 269 217 270 225 227 226 240 224 227 255 264 259 267 275 289 277 268 272 266 257 275 266
241 226 252 236 228 234 226 259 246 241 234 215 235 265 228 262 269 288 287 273 267 264 264 256 273 276 267
289 274 271 271 262 262 257 244 193 250 246 213 260 276 275 268 266 275 274 268 261 258 259 249 266 258 263
287 282 273 275 275 274 276 253 272 276 263 276 264 275 270 265 266 279 270 250 260 249 249 257 260 259 261

GFSFLT2_2pvu_pres_096.txt.gz
Presure
194 182 215 186 174 177 183 173 185 194 189 173 171 184 182 186 173 184 180 186 205 172 176 190 218 137 168
216 202 186 157 159 208 178 192 196 170 191 158 179 190 190 169 189 182 185 205 186 170 246 149 137 213 201
190 177 183 204 190 192 187 162 169 172 174 187 150 179 174 197 169 197 189 177 169 205 176 208 207 193 216
198 192 196 191 189 193 169 177 197 190 181 166 193 185 180 197 182 167 204 182 219 214 210 219 213 206 213
200 201 194 170 191 210 211 197 211 203 177 167 183 174 189 200 183 164 185 231 220 194 200 204 199 182 203
164 203 207 197 201 200 201 208 206 193 165 208 194 189 204 205 193 208 223 216 211 218 215 203 215 205 200
194 190 198 190 194 184 180 203 180 199 172 212 176 185 182 198 217 211 199 216 215 205 213 200 210 204 210
213 212 191 170 176 191 204 206 213 198 195 224 196 208 236 215 202 193 203 215 200 209 204 207 206 213 235
223 223 215 193 203 196 213 225 221 225 221 216 205 196 204 224 195 214 194 207 196 212 194 214 237 236 257
218 221 237 212 207 222 197 201 192 194 201 198 217 211 221 196 205 198 206 212 210 206 216 246 266 269 231
223 219 216 209 219 201 202 214 201 208 200 214 200 203 204 208 207 225 209 265 266 267 254 217 248 218 193
229 234 228 225 213 226 221 224 219 222 217 218 216 211 202 220 252 266 270 240 225 227 216 205 260 199 296
265 270 270 247 251 238 255 218 228 226 234 194 228 193 253 261 277 245 208 215 267 215 218 248 255 298 262
243 239 260 263 264 256 257 264 255 252 255 251 254 217 256 221 209 245 240 223 253 254 271 291 279 256 279
298 261 248 243 273 237 262 217 213 222 214 218 218 231 200 235 249 251 257 259 258 273 295 279 270 267 268
335 321 295 252 249 246 269 264 256 253 262 255 250 249 251 251 253 247 262 257 271 284 288 249 269 271 263
348 338 323 300 313 290 283 279 275 279 263 260 257 255 250 251 260 251 260 254 270 278 275 268 274 256 257

GFSFLT2_2pvu_pres_099.txt.gz
Presure
197 213 190 172 150 157 173 156 153 192 150 211 185 161 183 214 202 181 196 183 174 178 171 178 178 170 184
198 205 204 156 145 158 193 177 197 213 159 205 195 216 163 178 174 184 226 207 176 198 207 202 178 166 169
176 168 170 179 193 183 191 220 213 192 200 205 183 193 176 202 190 221 189 188 183 166 193 192 199 186 222
211 187 194 194 216 223 216 212 196 200 222 190 189 186 209 207 198 210 188 199 188 179 202 187 176 188 220
182 186 184 194 192 198 182 189 221 220 185 201 206 209 194 206 217 195 198 176 172 210 222 234 177 228 223
212 211 216 209 196 192 204 200 199 189 198 213 211 216 181 219 165 164 215 173 196 189 175 162 235 211 198
190 182 175 198 201 196 186 193 187 182 188 199 215 196 179 175 203 225 194 203 224 209 226 214 197 209 203
216 215 215 207 201 202 205 199 198 196 201 203 199 203 209 210 217 220 238 198 219 204 206 221 205 217 204
219 210 158 219 217 216 199 204 203 203 194 228 223 210 226 205 223 217 199 212 221 206 214 220 198 207 193
228 222 221 221 222 216 200 218 225 198 225 199 208 195 193 208 195 205 219 205 204 192 210 201 199 212 211
236 233 238 229 235 229 218 216 200 195 199 211 193 211 216 187 194 204 185 207 193 207 195 210 215 219 221
269 282 273 263 247 234 212 213 218 219 194 201 206 205 204 192 202 203 200 204 219 217 214 239 235 262 257
397 276 264 255 262 258 257 261 250 240 223 211 228 217 216 214 210 207 209 218 228 226 273 262 255 190 210
408 380 374 367 281 263 249 246 238 244 259 252 250 233 244 241 234 255 253 250 248 204 204 220 215 200 262
422 390 372 362 354 328 292 249 246 237 237 251 253 237 260 228 213 228 202 211 200 219 224 249 250 247 254
434 402 374 362 352 340 327 316 264 261 257 239 227 226 232 230 245 230 235 240 206 245 244 247 248 246 255
447 415 380 362 352 343 337 321 311 308 271 259 241 238 235 255 237 240 229 234 226 240 237 244 248 249 252

GFSFLT2_2pvu_pres_102.txt.gz
Presure
200 213 206 214 203 186 170 198 178 187 181 188 193 170 197 201 187 172 181 170 172 188 193 185 201 184 215
207 210 214 202 155 154 191 192 194 182 176 154 181 154 198 178 185 159 165 189 206 191 165 183 141 161 177
177 197 179 175 206 178 175 204 175 172 168 161 211 162 156 194 188 191 202 195 208 182 207 221 164 214 189
186 176 185 189 198 211 193 193 203 153 191 211 189 183 195 196 201 182 186 200 195 213 214 195 207 198 183
189 190 198 213 190 197 201 193 193 191 193 143 208 193 202 206 214 194 224 214 225 181 207 220 198 196 199
199 206 210 211 202 208 202 203 207 192 191 192 218 202 200 196 201 198 225 193 209 214 194 211 207 217 193
203 200 182 173 185 210 211 209 208 208 208 201 190 190 200 207 219 215 208 197 224 205 193 194 202 245 194
195 219 222 214 199 207 209 203 205 198 194 202 205 199 206 198 211 204 210 217 206 204 217 214 213 201 194
209 234 219 219 220 216 221 228 200 216 201 204 205 203 200 200 198 196 219 207 196 197 228 221 195 206 202
206 214 221 225 233 217 214 214 211 198 221 218 210 210 214 201 198 204 203 209 213 203 210 196 215 219 187
226 226 264 253 256 259 220 238 240 225 218 209 202 205 203 221 214 212 214 202 202 215 192 194 209 213 225
242 245 250 257 256 274 231 236 257 257 243 220 223 217 218 204 185 190 196 219 189 200 216 190 195 203 201
300 294 250 249 248 249 248 247 247 230 242 260 235 260 236 210 184 183 186 192 208 183 188 202 205 212 217
306 323 434 527 487 451 416 398 382 272 255 246 235 235 227 230 259 241 225 211 209 204 208 216 218 220 222
435 432 441 452 498 436 413 379 373 337 317 320 303 292 240 229 228 226 224 228 243 245 244 241 217 246 236
397 393 398 420 478 450 402 377 361 327 313 286 288 291 305 288 276 259 248 247 229 217 230 216 228 227 218
380 379 385 391 469 450 395 374 344 323 320 299 298 286 292 298 293 266 238 227 246 237 230 228 234 233 242

GFSFLT2_2pvu_pres_108.txt.gz
Presure
191 193 241 241 161 157 151 159 206 172 171 184 184 180 184 185 226 204 205 204 160 167 198 201 173 161 126
277 288 279 273 265 168 243 249 245 228 216 213 212 205 197 238 225 163 166 161 197 160 163 191 193 195 197
272 253 246 250 256 252 263 261 262 263 256 239 242 210 235 232 230 217 207 206 190 179 169 164 189 171 179
257 204 254 245 241 239 238 243 241 240 245 214 241 238 220 230 221 213 170 192 197 199 212 193 184 188 183
248 253 245 235 238 237 233 219 229 226 226 227 219 164 219 221 208 175 205 202 200 192 200 207 193 190 199
237 252 237 240 227 201 230 228 223 225 222 215 221 214 196 214 194 192 196 211 206 191 192 196 194 187 186
237 231 236 220 162 234 236 154 173 231 229 221 211 210 213 212 215 210 213 220 213 204 197 198 201 209 203
235 223 182 198 201 222 212 164 188 217 222 235 224 228 220 199 216 215 212 212 211 210 209 212 210 218 211
227 219 245 189 228 227 153 218 228 237 175 177 175 182 184 221 215 206 203 195 201 201 189 194 195 205 196
213 174 152 155 156 157 164 154 225 227 228 221 211 215 207 213 187 182 229 223 212 206 202 211 211 200 205
217 220 184 154 225 225 228 187 215 222 227 216 213 219 181 198 205 213 216 207 206 206 204 203 199 193 193
251 259 258 260 250 240 245 231 225 237 225 221 237 199 198 232 200 209 215 217 206 216 211 212 213 214 211
295 280 268 258 259 248 251 243 252 230 239 235 239 237 215 232 222 215 208 224 235 248 245 228 230 226 226
351 306 312 311 279 266 263 261 250 248 242 233 227 227 245 231 225 236 231 231 227 232 224 227 229 235 222
331 337 339 339 302 303 308 299 284 270 265 259 253 247 247 238 241 239 231 236 233 228 228 226 231 230 231
295 291 308 320 324 332 344 297 290 278 295 288 286 278 271 268 262 258 250 247 248 257 247 248 245 245 250
518 345 317 299 279 288 317 324 336 290 294 291 286 281 278 272 265 259 255 249 249 247 242 243 243 257 288

GFSFLT2_2pvu_pres_111.txt.gz
Presure
249 236 166 187 184 184 199 227 186 182 178 178 175 174 177 184 183 209 193 166 146 191 189 181 184 192 203
124 141 127 163 184 271 237 176 267 254 231 242 238 231 238 246 244 234 159 218 203 194 155 152 157 203 207
130 255 208 242 172 234 275 274 277 280 278 275 270 266 265 260 244 242 235 230 216 201 193 191 192 207 215
142 263 194 253 248 245 200 255 260 262 254 251 250 251 247 245 235 238 230 218 211 192 206 210 223 224 210
264 203 258 262 272 249 254 256 252 251 240 245 252 255 248 247 250 250 245 241 256 254 238 228 226 208 179
274 256 258 245 247 252 255 236 249 248 242 243 243 239 232 233 227 234 237 233 228 231 232 216 215 216 219
218 231 239 258 261 253 258 248 236 242 240 234 240 174 207 152 187 222 224 224 222 216 209 198 202 209 219
216 233 224 214 225 233 217 223 236 236 183 242 234 176 195 220 151 187 207 213 214 212 211 206 204 205 208
239 240 234 228 231 218 231 220 215 226 190 206 155 149 154 181 144 179 169 207 213 185 211 211 211 210 208
246 228 228 236 246 203 222 145 221 199 198 150 150 208 211 225 220 206 201 237 213 212 223 224 216 207 221
275 259 255 252 246 235 151 234 229 154 213 177 178 224 226 218 208 204 204 205 175 180 209 183 193 192 187
289 298 293 275 256 256 245 239 238 237 163 218 204 207 210 229 228 177 215 218 189 185 187 212 209 202 209
357 357 335 293 293 287 254 261 259 246 233 231 231 216 221 251 206 202 201 189 199 205 210 210 196 175 176
364 367 348 339 337 310 328 284 281 262 260 252 250 234 229 218 226 227 205 218 225 219 221 216 214 187 181
318 313 327 342 352 332 311 327 331 283 283 277 265 261 250 241 241 235 227 220 209 205 206 213 216 204 207
532 534 387 324 300 318 335 349 350 337 316 296 278 270 265 254 251 245 239 238 232 226 225 223 217 215 216
508 506 515 520 519 331 321 293 319 329 334 340 355 309 276 266 262 260 250 247 247 245 228 227 225 224 223

GFSFLT2_2pvu_pres_114.txt.gz
Presure
159 263 270 198 193 222 246 286 224 269 141 229 240 175 180 174 174 175 178 178 175 173 171 176 177 181 189
242 125 270 287 276 292 129 132 119 132 131 274 268 266 187 180 181 180 185 211 199 211 191 187 186 188 196
156 127 239 274 278 142 264 125 125 129 143 139 270 171 262 252 249 241 231 244 227 222 216 201 206 214 216
270 273 221 251 254 261 270 134 131 134 186 248 268 265 268 257 261 261 255 248 240 231 224 238 232 225 224
273 263 265 251 260 219 137 141 139 183 242 245 230 255 260 266 278 280 273 270 263 264 261 251 244 237 224
165 164 199 160 151 153 146 151 272 246 263 249 248 263 256 258 203 251 251 250 240 236 234 239 229 218 217
248 208 184 203 216 231 262 234 246 257 254 256 192 249 250 246 254 258 243 249 211 240 232 145 227 233 256
245 238 225 218 238 260 252 192 259 210 254 249 208 251 244 237 237 199 241 240 194 175 152 225 214 235 241
262 254 247 239 229 235 223 220 252 212 251 253 253 253 253 238 237 231 237 166 234 234 217 145 219 213 219
287 271 258 257 249 244 229 245 234 219 221 170 181 223 243 244 215 241 229 219 237 175 153 145 215 224 222
355 331 285 272 256 259 254 248 221 229 240 212 223 231 206 211 211 214 204 215 168 151 221 224 225 197 164
366 367 361 313 293 278 262 251 255 245 234 229 224 217 226 231 178 220 228 203 177 214 212 211 210 212 212
332 343 366 353 366 331 288 286 266 254 249 253 237 226 222 244 228 215 220 220 168 198 214 212 225 216 211
525 359 328 340 367 358 369 333 299 283 267 265 253 249 238 230 220 228 229 227 220 221 210 215 213 211 211
498 496 500 526 327 335 360 359 369 322 304 282 275 265 248 247 236 236 233 220 212 215 204 202 198 193 201
471 482 503 519 528 513 334 327 355 356 347 355 305 283 278 262 253 239 235 227 226 232 220 229 220 215 242
466 484 497 508 519 511 517 528 335 315 347 358 335 356 312 279 276 262 250 238 239 236 224 223 219 217 218

GFSFLT2_2pvu_pres_117.txt.gz
Presure
130 226 162 206 189 120 126 121 125 182 185 152 137 206 214 242 190 191 279 159 161 162 163 155 165 164 166
121 147 124 118 148 135 142 150 122 272 268 260 266 309 245 278 273 241 243 223 257 256 247 164 170 175 177
129 128 130 129 280 293 268 157 161 153 267 125 267 241 273 281 225 123 123 156 256 249 243 239 234 230 207
195 202 246 209 285 269 252 254 253 255 247 248 273 273 261 269 272 130 124 148 261 255 255 243 234 227 213
219 253 263 280 274 282 273 285 259 261 263 248 241 245 275 259 221 130 129 161 144 260 256 240 237 234 223
279 267 250 249 256 194 275 268 278 261 271 260 262 254 157 145 136 134 233 231 259 263 252 251 243 246 238
329 267 265 262 249 253 266 266 276 254 243 260 151 158 150 145 199 224 251 250 242 259 271 255 242 239 238
345 331 314 270 215 168 159 209 253 265 265 226 171 155 216 255 213 240 251 253 249 250 270 269 267 258 261
371 328 339 324 281 269 262 255 242 238 249 260 265 258 267 242 264 245 260 256 235 255 249 255 236 241 241
339 348 361 341 332 290 267 266 259 248 238 170 169 179 261 249 254 242 244 250 261 262 252 239 237 231 234
321 328 338 350 365 367 325 275 264 252 254 248 237 234 245 254 225 173 250 249 234 253 253 246 243 243 239
422 432 405 335 347 350 327 349 286 268 256 259 250 241 237 255 258 253 251 241 212 224 254 241 229 231 238
441 510 554 544 481 342 351 360 334 299 271 268 256 254 247 242 229 232 163 252 235 237 250 245 245 239 228
481 531 517 508 508 514 525 342 359 358 379 280 272 263 255 250 236 227 242 224 227 238 221 194 226 237 221
495 514 492 485 485 490 499 509 329 349 366 377 295 270 263 256 252 237 232 228 233 231 220 223 221 213 207
482 503 482 468 465 481 505 525 541 481 339 357 383 321 282 262 259 248 245 236 224 227 229 239 236 220 257
469 487 476 456 452 464 487 505 529 534 538 327 350 373 325 297 264 263 251 238 248 228 249 223 215 212 216

GFSFLT2_2pvu_pres_120.txt.gz
Presure
146 146 175 286 283 249 263 105 124 137 143 253 368 248 119 146 116 133 145 168 135 157 210 244 254 252 160
162 163 235 274 248 283 291 350 124 280 333 125 119 147 130 141 121 120 129 124 283 216 245 184 240 244 239
139 144 134 128 130 127 127 166 127 127 128 127 129 129 135 189 308 313 125 136 162 156 240 225 245 249 124
309 294 276 299 276 197 200 202 216 133 134 136 142 278 279 285 242 265 251 278 291 281 309 249 271 231 125
264 314 311 298 268 290 260 261 269 299 287 299 281 279 271 281 261 280 257 268 248 253 254 250 250 268 133
386 304 292 333 338 281 284 273 258 261 286 292 277 268 271 269 275 248 263 232 257 261 263 266 288 260 257
366 374 383 393 407 429 313 264 274 262 253 268 291 263 262 254 244 241 246 244 255 244 249 262 242 216 136
323 328 337 351 369 391 405 335 288 271 268 254 272 275 271 261 207 254 255 247 253 243 289 243 175 143 141
376 325 323 326 336 355 377 401 325 291 267 255 244 265 283 270 271 258 242 250 241 198 148 244 151 209 240
363 414 453 497 461 332 347 369 395 339 281 279 251 261 251 184 229 161 263 206 169 161 156 152 161 254 267
374 415 428 441 468 444 395 344 362 393 329 289 274 264 261 256 260 271 261 261 261 234 263 253 252 262 248
402 411 437 442 431 440 420 438 338 354 386 340 284 276 266 258 258 252 263 260 222 250 233 250 242 246 248
405 415 417 390 382 372 372 385 407 374 345 376 343 287 276 266 257 253 240 261 254 247 240 183 247 238 242
416 380 342 392 451 500 530 517 513 514 524 343 369 342 290 275 260 260 253 240 249 258 247 240 246 247 225
417 418 367 437 467 498 508 496 490 490 496 502 341 365 341 292 271 258 259 254 242 260 239 245 241 236 165
418 385 425 447 499 488 494 478 471 470 485 515 536 342 360 374 293 264 258 253 254 243 228 245 241 228 236
416 425 441 489 503 496 474 455 452 459 486 507 527 549 341 353 357 291 265 256 251 246 241 230 228 234 226

GFSFLT2_2pvu_pres_123.txt.gz
Presure
277 282 272 271 273 238 277 277 280 283 202 130 152 189 118 131 234 123 301 111 143 225 147 151 132 137 135
280 273 269 290 292 283 266 266 177 148 151 152 162 212 302 146 151 163 167 161 142 326 338 176 148 120 124
180 145 139 137 141 263 268 296 283 185 161 185 159 216 156 266 298 295 306 300 223 121 146 144 161 127 141
328 338 323 307 346 316 297 296 210 134 134 138 145 210 280 296 249 222 141 125 171 130 126 132 217 194 183
381 419 427 428 394 368 303 281 322 282 300 304 279 231 237 142 138 135 132 126 126 255 138 168 314 330 287
345 341 339 339 335 336 356 410 336 296 319 314 284 280 263 268 297 281 282 275 275 291 162 265 274 296 299
326 321 314 315 318 324 330 337 343 385 382 316 321 309 280 263 280 273 280 264 280 284 262 261 272 296 274
313 308 329 375 399 402 377 323 329 337 357 409 336 318 294 278 263 298 270 270 275 272 272 266 253 258 273
336 382 375 378 387 408 436 392 410 357 334 366 394 380 313 289 281 262 271 271 277 275 252 249 258 262 263
361 356 361 369 377 409 425 451 464 478 464 338 362 396 357 306 277 270 255 291 276 273 264 258 239 244 256
341 345 363 368 376 396 420 439 455 462 449 467 336 369 411 318 293 268 264 264 273 270 262 263 252 261 269
338 350 355 358 373 396 418 440 441 417 413 452 471 342 383 378 308 285 263 258 279 271 264 257 254 249 255
331 342 345 350 367 409 428 439 422 365 382 405 556 548 356 392 321 293 274 275 261 283 257 263 250 247 253
320 335 343 354 388 428 445 446 463 476 502 520 446 477 334 370 373 305 282 268 256 260 268 249 255 247 245
327 334 347 365 455 460 466 474 483 501 505 511 512 441 471 341 372 323 298 280 262 252 256 271 248 254 238
328 341 351 453 479 477 480 491 508 511 509 492 484 487 390 509 359 376 309 285 273 262 253 246 262 259 251
330 346 449 456 456 471 499 507 474 464 458 460 465 476 488 387 447 365 336 300 282 272 259 247 250 249 253

GFSFLT2_2pvu_pres_126.txt.gz
Presure
271 241 250 272 284 289 288 286 276 282 289 285 285 260 147 300 315 167 154 134 134 137 135 139 152 137 148
279 250 242 252 287 292 303 289 284 298 291 284 290 290 282 280 283 290 285 140 140 307 150 147 125 134 122
278 272 239 240 290 295 305 312 316 310 303 306 295 220 298 290 182 172 137 253 158 284 263 135 129 134 306
287 296 306 306 313 405 408 295 291 322 264 147 143 225 290 295 303 287 273 264 183 221 311 260 306 364 323
298 303 310 330 382 368 355 345 347 352 359 381 297 327 270 150 144 164 290 243 162 158 300 309 316 385 348
294 303 321 362 345 338 340 335 331 333 339 336 341 362 335 301 310 300 307 150 144 133 127 133 267 155 296
297 292 348 332 295 331 323 318 318 322 321 325 328 337 344 373 359 307 290 298 296 272 275 299 180 133 131
296 349 319 281 324 316 351 377 380 386 395 413 411 405 332 338 361 368 295 295 300 281 266 318 290 284 267
350 333 277 320 318 376 368 368 360 376 380 402 409 448 474 414 334 362 351 309 303 283 271 296 287 295 282
331 275 317 317 363 357 350 344 348 362 366 384 390 439 470 487 499 339 369 344 322 296 275 263 288 281 256
274 311 308 352 349 340 344 342 346 355 364 382 419 447 470 483 470 487 341 415 322 302 276 278 287 265 275
313 302 348 345 336 332 334 335 348 355 366 391 469 478 488 489 437 461 431 363 384 305 279 268 274 263 272
302 331 350 339 326 329 332 341 350 363 394 474 476 481 490 499 468 445 484 351 422 301 291 271 274 281 265
311 351 344 332 330 334 342 359 401 459 461 467 475 489 501 506 375 412 489 475 390 308 300 280 287 281 274
346 345 336 329 335 353 462 470 479 488 475 473 504 523 526 524 531 392 532 540 371 356 294 284 270 262 250
341 335 328 335 393 541 521 512 506 490 474 468 468 473 486 490 495 507 513 524 355 404 299 292 270 266 267
332 329 330 446 491 470 462 451 439 436 434 439 448 451 453 456 467 484 503 505 440 388 302 287 268 270 266

GFSFLT2_2pvu_pres_129.txt.gz
Presure
259 273 215 260 270 261 254 269 287 289 271 280 283 283 281 278 283 292 318 312 260 291 172 133 254 169 143
249 261 276 271 274 282 267 269 281 293 298 302 282 279 285 303 302 271 278 282 296 309 338 289 129 288 159
269 257 270 279 278 269 277 282 298 301 302 311 314 317 313 304 308 307 301 303 284 281 287 219 228 154 297
265 273 281 278 282 271 280 292 304 307 308 326 393 355 391 395 385 328 317 304 307 302 290 280 283 289 142
271 272 277 287 281 271 298 304 307 313 366 366 354 353 353 357 359 365 332 273 254 308 312 299 286 280 283
276 280 280 292 278 298 301 304 318 351 337 333 332 337 343 344 346 352 355 351 296 328 148 187 278 290 278
278 282 280 286 293 295 305 329 347 332 326 301 323 328 346 349 338 338 344 348 353 367 308 322 253 144 240
283 282 285 289 290 303 320 348 332 302 325 334 376 378 372 375 377 389 398 388 346 343 366 342 323 307 310
285 281 287 289 304 289 344 330 315 318 359 372 365 362 357 360 357 355 373 393 411 369 341 366 329 311 299
284 281 290 301 284 344 301 321 323 365 360 362 362 351 351 349 349 354 368 382 405 425 376 345 379 316 305
279 285 285 281 336 294 318 322 359 361 354 357 349 342 348 356 348 353 367 381 398 440 507 346 363 373 298
283 283 279 333 279 313 336 354 353 352 346 347 357 363 377 390 404 395 401 409 476 499 505 510 350 379 308
283 282 286 277 309 331 345 346 349 342 364 531 531 508 491 485 485 477 481 477 487 505 508 502 346 377 324
289 279 276 308 325 347 344 341 410 490 477 487 493 496 496 501 522 533 513 503 514 530 540 519 352 381 331
272 290 308 309 347 341 340 443 458 458 455 454 450 453 451 449 455 469 502 522 526 539 545 531 418 391 301
282 308 304 345 338 337 422 422 431 439 441 442 441 446 446 447 460 464 467 481 500 515 525 457 446 399 296
308 301 343 335 328 398 392 388 386 388 394 436 447 454 466 463 456 471 493 490 489 499 510 446 447 398 294

GFSFLT2_2pvu_pres_132.txt.gz
Presure
210 270 264 262 279 272 271 272 267 287 279 273 257 247 259 278 267 280 293 309 297 302 298 288 298 287 302
272 269 262 260 263 279 283 261 272 281 286 290 289 284 278 245 264 291 284 277 283 292 311 290 300 314 328
257 268 258 259 262 264 279 281 264 280 278 279 292 295 289 280 290 302 313 312 289 276 290 295 297 283 325
276 272 260 263 287 272 267 290 268 279 283 280 294 294 294 285 312 316 318 325 317 261 323 307 288 302 299
275 272 261 267 304 272 279 283 285 289 280 293 288 299 300 305 322 318 368 383 370 370 369 367 323 321 298
285 269 279 277 283 269 288 284 284 279 293 288 298 298 312 315 336 364 358 356 353 354 353 356 369 390 315
284 285 285 283 264 293 290 285 282 289 289 290 295 306 317 353 345 339 340 342 346 350 353 357 354 354 373
309 306 279 264 287 288 288 285 280 287 296 304 296 294 331 325 327 329 334 339 356 374 381 384 359 362 354
310 281 271 264 283 287 286 286 286 295 306 301 304 329 327 324 339 364 369 376 380 385 386 389 396 407 357
292 275 266 289 287 285 288 289 295 305 297 335 328 337 386 373 360 356 360 365 372 379 381 379 379 388 399
283 285 290 286 283 288 289 295 303 300 329 336 376 369 369 375 366 363 363 361 364 366 373 376 374 380 391
285 286 282 279 282 281 291 286 318 322 356 362 361 467 502 500 505 508 543 551 491 422 392 387 384 382 387
286 283 276 280 275 291 276 322 313 353 349 412 418 420 436 483 477 476 472 478 512 536 521 503 500 491 413
277 279 279 279 287 277 284 312 344 339 379 373 382 393 410 425 478 475 472 471 463 473 506 539 520 500 507
279 279 279 283 274 299 308 338 331 370 366 371 371 372 388 409 434 474 481 472 464 468 469 503 528 515 508
277 282 278 276 297 305 337 329 357 346 350 370 372 373 376 385 415 430 472 479 486 480 475 477 495 509 532
284 275 309 301 301 334 329 354 343 349 320 349 348 361 370 380 391 415 433 465 485 489 501 501 489 501 518

GFSFLT2_2pvu_pres_135.txt.gz
Presure
234 235 229 240 252 254 237 279 284 274 266 263 278 260 260 282 257 260 265 288 297 308 303 329 315 293 302
230 242 240 246 241 201 205 274 285 277 270 274 266 281 268 253 288 282 159 253 260 270 279 284 300 299 317
231 241 242 234 248 265 275 279 286 278 268 276 296 279 280 279 286 258 289 287 257 193 261 262 271 283 284
235 236 231 239 255 253 279 282 290 273 286 268 307 297 272 280 301 273 285 272 285 291 278 256 267 266 270
247 245 247 252 255 272 286 295 294 287 314 284 293 273 272 283 292 282 277 292 300 304 307 309 300 292 282
248 250 275 258 251 288 297 295 298 314 289 280 270 300 297 297 293 293 292 300 304 309 315 321 320 324 334
271 246 255 281 305 292 320 292 313 297 281 272 264 289 290 291 291 296 301 308 313 324 325 326 325 324 285
241 242 264 308 311 331 318 309 301 278 275 259 288 289 283 287 294 296 304 317 324 325 349 346 339 368 367
309 322 313 326 334 318 305 295 304 296 291 290 286 279 284 288 295 305 311 346 344 341 347 352 354 357 357
364 360 339 325 315 308 313 299 293 288 287 282 286 294 290 299 293 333 337 380 387 391 410 398 403 410 411
349 338 322 311 319 297 286 288 285 279 284 289 288 305 292 333 353 384 412 422 415 464 528 529 537 421 394
332 319 315 302 295 283 288 281 285 291 291 305 293 321 350 380 385 408 407 403 416 440 518 507 504 515 552
320 310 299 286 285 289 280 285 282 297 293 333 321 354 374 370 360 371 385 395 408 430 469 516 500 490 496
297 280 286 283 284 280 279 281 288 316 315 334 341 328 349 346 366 371 372 380 392 416 448 496 504 486 484
295 281 281 284 278 278 281 280 329 304 342 333 334 340 345 335 346 350 363 374 382 402 427 449 494 504 487
278 282 282 278 275 280 278 323 300 343 325 316 338 342 325 333 341 348 357 369 384 394 410 433 453 489 505
287 279 277 276 278 301 313 294 344 316 310 341 326 319 327 327 327 340 358 365 386 391 404 425 444 460 497